Find Starlink 32327

NORAD ID: 61641 Int'l Des: 2024-191 Owner: SPXS Country: US Constellation: starlink operational
LEOCIRCULAR

現在のビュー

3D地球を読み込み中...

About Starlink 32327

Starlink 32327 (NORAD 61641) is a starlink constellation satellite (v2 mini) launched Oct 23, 2024 by SPXS of US. It operates in LEO, CIRCULAR orbit with a mass of 730.00 kg.

Starlink 32327について

説明を読み込み中...

次回通過

Passes for default location (London). Set your location on the main map for personalized predictions.

高度履歴

Loading altitude history...

軌道要素

1 61641U 24191W 26169.68034862 .00000846 00000-0 40261-4 0 9991
2 61641 43.0032 303.9853 0001223 266.6240 93.4472 15.27582208 92984
Epoch: Jun 18, 2026 • Age: 13 hours

現在のステータス

高度 486.5 km
速度 7.62 km/s
衛星直下点 -18.14°S, 147.03°E
打ち上げ日 Oct 23, 2024
運用期間 1.6 years
タイプ internet

技術仕様

分類 Payload
質量 730.00 kg
乾燥質量 700.00 kg
総質量 730.00 kg
長さ 0.30 m
直径 4.10 m
スパン 29.00 m
形状 Box + pan
製造者 SPXS
バスタイプ Starlink V2M
フェーズステータス In Orbit
所有者/国 SPXS/US

Most Searched